Hourly Weather Roundup
Issued by NWS Central Illinois

Home | Current Version | Previous Version | Text Only | Print | Product List | Glossary On
Versions: 1 2 3 4 5 6 7 8 9 10 11 12 13 14 15 16 17 18 19 20 21 22 23 24 25 26 27 28 29 30 31 32 33 34 35 36 37 38 39 40 41 42 43 44 45 46 47 48 49 50
000
NZUS43 KILX 231010
HWRILX

AREA WEATHER ROUNDUP
NATIONAL WEATHER SERVICE, LINCOLN IL
500 AM CDT SAT AUG 23 2014


CITY           SKY/WX    TMP DP  RH WIND       PRES   REMARKS
BLOOMINGTON    CLEAR     71  70  97 E5        29.97S FOG
CHAMPAIGN      FOG       73  72  96 E5        29.97R VSB 1/4
DECATUR        PTCLDY    74  72  93 E5        29.95S FOG
FLORA          FOG       74  74  98 CALM      29.95R VSB 1/2
GALESBURG      PTCLDY    74  72  96 E3        29.94S FOG
JACKSONVILLE   CLEAR     77  76  96 CALM      29.93S FOG
LACON          PTCLDY    71  69  95 CALM      29.94F
LAWRENCEVILLE  CLOUDY    74  73  97 SE3       29.96S
LITCHFIELD     CLEAR     75  75  99 SE3       29.93F FOG
$$


CITY           SKY/WX    TMP DP  RH WIND       PRES   REMARKS
LINCOLN        PTCLDY    75  73  94 CALM      29.91F FOG
MACOMB         MOCLDY    74  74 100 E3        29.95F FOG
MATTOON        CLEAR     76  74  93 S5        29.95S FOG
MT CARMEL AP   CLEAR     77  73  88 CALM      29.96S
OLNEY-NOBLE AP CLEAR     75  75 100 CALM      29.95S FOG
PARIS          FOG       72  72 100 CALM      29.97S VSB 1/4
PEORIA         CLEAR     76  72  87 CALM      29.94F
PONTIAC        CLEAR     72  72 100 CALM      29.97R FOG
RANTOUL        CLEAR     73  70  89 CALM      29.98R FOG
ROBINSON       PTCLDY    75  74  97 CALM      29.96S FOG
SPRINGFIELD    CLEAR     77  75  93 E3        29.93S
TAYLORVILLE    PTCLDY    73  73 100 E3        29.94S FOG
$$

...REGIONAL REPORTS...


CITY           SKY/WX    TMP DP  RH WIND       PRES   REMARKS
CHICAGO O`HARE CLOUDY    73  69  87 NE6       29.97S FOG
KANKAKEE       FOG       69  69  99 CALM      29.98R VSB 3/4
MOLINE         MOCLDY    75  73  93 E7        29.93F
MOUNT VERNON   PTCLDY    75  72  88 CALM      29.95S
PITTSFIELD     CLEAR     76  74  93 CALM      29.93S FOG
QUINCY         CLEAR     76  74  93 SE6       29.91F
ROCKFORD       CLOUDY    73  70  90 CALM      29.97F FOG
$$


CITY           SKY/WX    TMP DP  RH WIND       PRES   REMARKS
BURLINGTON     CLEAR     76  75  97 E3        29.91F FOG
CEDAR RAPIDS   CLOUDY    74  74 100 CALM      29.91S FOG
DES MOINES     TSTM      73  70  90 W22       29.94R FOG
KIRKSVILLE     PTCLDY    77  75  93 SE6       29.94S
OTTUMWA        CLOUDY    76  75  97 E8        29.91S
ST LOUIS       MOCLDY    82  74  76 S3        29.93S HX  88
$$


CITY           SKY/WX    TMP DP  RH WIND       PRES   REMARKS
TERRE HAUTE    FOG       71  70  96 CALM      29.97R VSB 1/4
EVANSVILLE     MOCLDY    76  71  85 CALM      29.97S
INDIANAPOLIS   CLEAR     70  68  93 CALM      29.98R
LAFAYETTE      CLEAR     68  68 100 E3        29.98R FOG
MADISON        FOG       75  73  93 SE6       29.96F VSB 1
MILWAUKEE      FOG       69  68  96 NE5       29.99S VSB 1/2
$$





USA.gov is the U.S. government's official web portal to all federal, state and local government web resources and services.